| time (UTC) | temp C | wind direction | speed KPH | gust KPH | rain 1hr cm | rain 24hr cm | rain mn cm | humidity % | barometer mb |
| 20260507022521 | 15 | 73 | 4.8 | 6.4 | 0.00 | 0.38 | 0.38 | 95 | 1016.6 |
| 20260507022513 | 15 | 32 | 6.4 | 9.7 | 0.00 | 0.38 | 0.38 | 95 | 1016.0 |
| 20260507021523 | 15 | 31 | 4.8 | 8.0 | 0.00 | 0.38 | 0.38 | 95 | 1016.6 |
| 20260507020546 | 16 | 14 | 1.6 | 4.8 | 0.00 | 0.38 | 0.38 | 94 | 1016.6 |
| 20260507015528 | 16 | 34 | 6.4 | 8.0 | 0.00 | 0.38 | 0.38 | 94 | 1016.4 |
| 20260507015513 | 15 | 17 | 6.4 | 9.7 | 0.00 | 0.38 | 0.38 | 94 | 1015.7 |
| 20260507014550 | 16 | 26 | 4.8 | 8.0 | 0.00 | 0.38 | 0.38 | 94 | 1016.4 |
| 20260507013553 | 16 | 40 | 3.2 | 6.4 | 0.00 | 0.38 | 0.38 | 94 | 1016.2 |
| 20260507012516 | 16 | 22 | 3.2 | 6.4 | 0.00 | 0.38 | 0.38 | 93 | 1016.0 |
| 20260507012513 | 16 | 354 | 3.2 | 8.0 | 0.00 | 0.38 | 0.38 | 93 | 1015.0 |
| 20260507011519 | 16 | 30 | 6.4 | 8.0 | 0.00 | 0.38 | 0.38 | 93 | 1015.7 |
| 20260507010521 | 16 | 27 | 3.2 | 8.0 | 0.00 | 0.38 | 0.38 | 92 | 1015.7 |
| 20260507005523 | 16 | 32 | 3.2 | 4.8 | 0.00 | 0.38 | 0.38 | 92 | 1015.5 |
| 20260507005513 | 16 | 6 | 3.2 | 4.8 | 0.00 | 0.38 | 0.38 | 92 | 1014.7 |
| 20260507004520 | 16 | 351 | 6.4 | 9.7 | 0.00 | 0.38 | 0.38 | 92 | 1015.5 |
| 20260507003536 | 16 | 35 | 4.8 | 6.4 | 0.00 | 0.38 | 0.38 | 92 | 1015.3 |
| 20260507002550 | 16 | 4 | 3.2 | 6.4 | 0.00 | 0.38 | 0.38 | 92 | 1015.2 |
| 20260507002513 | 16 | 15 | 3.2 | 8.0 | 0.00 | 0.38 | 0.38 | 91 | 1014.6 |
| 20260507001532 | 16 | 346 | 6.4 | 9.7 | 0.00 | 0.38 | 0.38 | 91 | 1015.3 |
| 20260507000516 | 16 | 12 | 6.4 | 9.7 | 0.00 | 0.38 | 0.38 | 91 | 1015.2 |
| 20260506235519 | 16 | 353 | 6.4 | 8.0 | 0.00 | 0.38 | 0.38 | 91 | 1015.1 |
| 20260506235513 | 16 | 349 | 6.4 | 8.0 | 0.00 | 0.38 | 0.38 | 90 | 1014.2 |
| 20260506234521 | 16 | 7 | 4.8 | 9.7 | 0.00 | 0.38 | 0.38 | 90 | 1015.0 |
| 20260506233523 | 16 | 346 | 6.4 | 9.7 | 0.00 | 0.38 | 0.38 | 90 | 1014.6 |
| 20260506232525 | 17 | 57 | 4.8 | 8.0 | 0.00 | 0.38 | 0.38 | 90 | 1014.7 |
| 20260506232513 | 16 | 6 | 6.4 | 11.3 | 0.00 | 0.38 | 0.38 | 90 | 1014.2 |
| 20260506231528 | 17 | 26 | 4.8 | 11.3 | 0.00 | 0.38 | 0.38 | 90 | 1015.1 |
| 20260506230549 | 17 | 2 | 6.4 | 11.3 | 0.00 | 0.38 | 0.38 | 90 | 1015.1 |
| 20260506225552 | 17 | 14 | 6.4 | 14.5 | 0.00 | 0.38 | 0.38 | 89 | 1014.9 |
| 20260506225513 | 17 | 19 | 6.4 | 11.3 | 0.00 | 0.38 | 0.38 | 89 | 1013.9 |
| 20260506224516 | 17 | 4 | 4.8 | 12.9 | 0.00 | 0.38 | 0.38 | 89 | 1014.7 |
| 20260506223538 | 17 | 348 | 9.7 | 16.1 | 0.00 | 0.38 | 0.38 | 88 | 1014.5 |
| 20260506222528 | 18 | 9 | 8.0 | 14.5 | 0.00 | 0.38 | 0.38 | 88 | 1014.5 |
| 20260506222513 | 17 | 42 | 8.0 | 12.9 | 0.00 | 0.38 | 0.38 | 87 | 1013.4 |
| 20260506221517 | 18 | 31 | 8.0 | 11.3 | 0.00 | 0.38 | 0.38 | 87 | 1014.5 |
| 20260506220519 | 18 | 16 | 9.7 | 14.5 | 0.00 | 0.38 | 0.38 | 86 | 1014.7 |
| 20260506215522 | 18 | 356 | 8.0 | 11.3 | 0.00 | 0.38 | 0.38 | 86 | 1014.5 |
| 20260506215513 | 18 | 11 | 6.4 | 12.9 | 0.00 | 0.38 | 0.38 | 86 | 1013.3 |
| 20260506214523 | 18 | 18 | 9.7 | 14.5 | 0.00 | 0.38 | 0.38 | 85 | 1014.7 |
| 20260506213525 | 18 | 20 | 9.7 | 16.1 | 0.00 | 0.38 | 0.38 | 85 | 1014.5 |
| 20260506212528 | 19 | 24 | 9.7 | 17.7 | 0.00 | 0.38 | 0.38 | 84 | 1014.5 |
| 20260506212513 | 19 | 351 | 9.7 | 16.1 | 0.00 | 0.38 | 0.38 | 82 | 1013.1 |
| 20260506211532 | 20 | 360 | 9.7 | 17.7 | 0.00 | 0.38 | 0.38 | 82 | 1014.5 |
| 20260506210712 | 20 | 15 | 8.0 | 12.9 | 0.00 | 0.38 | 0.38 | 82 | 1014.7 |
| 20260506205516 | 21 | 24 | 11.3 | 16.1 | 0.00 | 0.38 | 0.38 | 81 | 1014.8 |
| 20260506205513 | 21 | 17 | 9.7 | 16.1 | 0.00 | 0.38 | 0.38 | 80 | 1013.1 |
| 20260506204518 | 21 | 5 | 12.9 | 16.1 | 0.00 | 0.38 | 0.38 | 80 | 1014.7 |
| 20260506203520 | 21 | 5 | 8.0 | 11.3 | 0.00 | 0.38 | 0.38 | 80 | 1014.7 |
| 20260506202523 | 21 | 35 | 8.0 | 11.3 | 0.00 | 0.38 | 0.38 | 80 | 1014.7 |
| 20260506202513 | 20 | 12 | 8.0 | 14.5 | 0.00 | 0.38 | 0.38 | 81 | 1013.2 |
| 20260506201524 | 20 | 42 | 8.0 | 11.3 | 0.00 | 0.38 | 0.38 | 82 | 1014.9 |
| 20260506200526 | 21 | 3 | 11.3 | 17.7 | 0.00 | 0.38 | 0.38 | 80 | 1015.0 |
| 20260506195709 | 22 | 357 | 8.0 | 12.9 | 0.00 | 0.38 | 0.38 | 80 | 1014.9 |
| 20260506195513 | 22 | 29 | 6.4 | 11.3 | 0.00 | 0.38 | 0.38 | 79 | 1012.9 |
| 20260506194525 | 22 | 10 | 8.0 | 17.7 | 0.00 | 0.38 | 0.38 | 80 | 1014.8 |
| 20260506193521 | 23 | 323 | 6.4 | 12.9 | 0.00 | 0.38 | 0.38 | 77 | 1014.9 |
| 20260506192517 | 22 | 347 | 8.0 | 17.7 | 0.00 | 0.38 | 0.38 | 80 | 1014.9 |
| 20260506192513 | 22 | 32 | 6.4 | 12.9 | 0.00 | 0.38 | 0.38 | 79 | 1012.9 |
| 20260506191531 | 22 | 356 | 9.7 | 17.7 | 0.00 | 0.38 | 0.38 | 81 | 1015.0 |
| 20260506190536 | 23 | 17 | 9.7 | 16.1 | 0.00 | 0.38 | 0.38 | 80 | 1014.9 |
| 20260506185518 | 23 | 46 | 8.0 | 16.1 | 0.00 | 0.38 | 0.38 | 80 | 1015.0 |
| 20260506185513 | 23 | 4 | 8.0 | 16.1 | 0.00 | 0.38 | 0.38 | 78 | 1012.6 |
| 20260506184520 | 24 | 27 | 12.9 | 16.1 | 0.00 | 0.38 | 0.38 | 78 | 1014.8 |
| 20260506183522 | 25 | 28 | 12.9 | 17.7 | 0.00 | 0.38 | 0.38 | 76 | 1014.8 |
| 20260506182525 | 26 | 354 | 4.8 | 8.0 | 0.00 | 0.38 | 0.38 | 78 | 1014.7 |
| 20260506182513 | 26 | 15 | 6.4 | 12.9 | 0.00 | 0.38 | 0.38 | 77 | 1012.0 |
| 20260506181527 | 26 | 338 | 4.8 | 11.3 | 0.00 | 0.38 | 0.38 | 77 | 1014.7 |
| 20260506180529 | 26 | 41 | 4.8 | 9.7 | 0.00 | 0.38 | 0.38 | 76 | 1014.7 |
| 20260506175551 | 26 | 4 | 8.0 | 11.3 | 0.00 | 0.38 | 0.38 | 79 | 1014.9 |
| 20260506175513 | 25 | 17 | 8.0 | 11.3 | 0.00 | 0.38 | 0.38 | 77 | 1012.2 |
| 20260506174515 | 25 | 21 | 6.4 | 11.3 | 0.00 | 0.38 | 0.38 | 80 | 1015.1 |
| 20260506173517 | 23 | 22 | 6.4 | 9.7 | 0.00 | 0.38 | 0.38 | 85 | 1015.1 |
| 20260506172520 | 22 | 23 | 1.6 | 6.4 | 0.00 | 0.38 | 0.38 | 90 | 1015.1 |
| 20260506172513 | 21 | 66 | 3.2 | 4.8 | 0.00 | 0.38 | 0.38 | 90 | 1013.3 |
| 20260506171522 | 22 | 75 | 3.2 | 4.8 | 0.00 | 0.38 | 0.38 | 89 | 1015.2 |
| 20260506170525 | 22 | 270 | 3.2 | 6.4 | 0.00 | 0.38 | 0.38 | 91 | 1014.9 |
| 20260506165521 | 22 | 36 | 4.8 | 8.0 | 0.00 | 0.38 | 0.38 | 89 | 1014.7 |
| 20260506165513 | 21 | 29 | 0.0 | 3.2 | 0.00 | 0.38 | 0.38 | 89 | 1012.8 |
| 20260506164517 | 21 | 49 | 3.2 | 6.4 | 0.00 | 0.38 | 0.38 | 90 | 1014.7 |
| 20260506163531 | 21 | 14 | 3.2 | 6.4 | 0.00 | 0.38 | 0.38 | 92 | 1014.5 |
| 20260506162515 | 20 | 133 | 1.6 | 6.4 | 0.03 | 0.38 | 0.38 | 95 | 1014.5 |
| 20260506162513 | 19 | 350 | 1.6 | 4.8 | 0.00 | 0.38 | 0.38 | 94 | 1013.0 |
| 20260506161517 | 20 | 10 | 4.8 | 8.0 | 0.10 | 0.38 | 0.38 | 94 | 1014.5 |
| 20260506160519 | 20 | 29 | 6.4 | 9.7 | 0.30 | 0.38 | 0.38 | 95 | 1014.5 |
| 20260506155521 | 20 | 5 | 6.4 | 9.7 | 0.33 | 0.38 | 0.38 | 95 | 1014.5 |
| 20260506155513 | 19 | 18 | 4.8 | 8.0 | 0.33 | 0.38 | 0.38 | 96 | 1013.1 |
| 20260506154524 | 19 | 11 | 8.0 | 14.5 | 0.36 | 0.38 | 0.38 | 95 | 1014.3 |
| 20260506153526 | 20 | 346 | 4.8 | 12.9 | 0.36 | 0.38 | 0.38 | 97 | 1014.4 |
| 20260506152528 | 20 | 354 | 4.8 | 8.0 | 0.33 | 0.36 | 0.36 | 98 | 1014.5 |
| 20260506152513 | 19 | 333 | 3.2 | 6.4 | 0.23 | 0.28 | 0.28 | 98 | 1013.0 |
| 20260506151551 | 20 | 0 | 9.7 | 12.9 | 0.25 | 0.28 | 0.28 | 97 | 1014.5 |
| 20260506150533 | 22 | 267 | 4.8 | 30.6 | 0.05 | 0.08 | 0.08 | 99 | 1013.8 |
| 20260506145517 | 22 | 250 | 1.6 | 4.8 | 0.03 | 0.05 | 0.05 | 99 | 1013.8 |
| 20260506145513 | 22 | 0 | 0.0 | 0.0 | 0.03 | 0.03 | 0.03 | 99 | 1011.7 |
| 20260506144539 | 22 | 220 | 1.6 | 4.8 | 0.03 | 0.03 | 0.03 | 99 | 1013.8 |
| 20260506143521 | 22 | 225 | 1.6 | 4.8 | 0.03 | 0.03 | 0.03 | 99 | 1013.8 |
| 20260506142523 | 22 | 0.0 | 0.0 | 0.03 | 0.03 | 0.03 | 99 | 1013.6 | |
| 20260506142513 | 22 | 0 | 0.0 | 0.0 | 0.03 | 0.03 | 0.03 | 99 | 1011.4 |
| 20260506141520 | 22 | 0.0 | 0.0 | 0.03 | 0.03 | 0.03 | 99 | 1013.4 | |
| 20260506140515 | 22 | 0.0 | 0.0 | 0.03 | 0.03 | 0.03 | 99 | 1013.3 | |
| 20260506135530 | 22 | 0.0 | 0.0 | 0.03 | 0.03 | 0.03 | 99 | 1013.2 | |
| 20260506135513 | 22 | 93 | 1.6 | 4.8 | 0.00 | 0.00 | 0.00 | 99 | 1011.3 |
| 20260506134532 | 22 | 0.0 | 4.8 | 0.00 | 0.00 | 0.00 | 99 | 1012.8 | |
| 20260506133516 | 22 | 0.0 | 0.0 | 0.00 | 0.00 | 0.00 | 99 | 1012.1 | |
| 20260506132518 | 22 | 129 | 1.6 | 4.8 | 0.00 | 0.00 | 0.00 | 99 | 1011.9 |
| 20260506132513 | 21 | 135 | 0.0 | 4.8 | 0.00 | 0.00 | 0.00 | 99 | 1010.0 |
| 20260506131540 | 22 | 176 | 1.6 | 6.4 | 0.00 | 0.00 | 0.00 | 99 | 1011.9 |
| 20260506130522 | 22 | 113 | 1.6 | 3.2 | 0.00 | 0.00 | 0.00 | 99 | 1011.7 |
| 20260506125524 | 22 | 59 | 1.6 | 4.8 | 0.00 | 0.00 | 0.00 | 99 | 1011.7 |
| 20260506125513 | 21 | 141 | 1.6 | 4.8 | 0.00 | 0.00 | 0.00 | 99 | 1009.8 |
| 20260506124547 | 22 | 164 | 1.6 | 6.4 | 0.00 | 0.00 | 0.00 | 99 | 1011.7 |
| 20260506123549 | 22 | 160 | 3.2 | 8.0 | 0.00 | 0.00 | 0.00 | 99 | 1011.4 |
| 20260506122532 | 22 | 123 | 3.2 | 6.4 | 0.00 | 0.00 | 0.00 | 99 | 1011.4 |
| 20260506122513 | 21 | 143 | 3.2 | 9.7 | 0.00 | 0.00 | 0.00 | 99 | 1009.5 |
| 20260506121516 | 22 | 152 | 4.8 | 8.0 | 0.00 | 0.00 | 0.00 | 99 | 1011.4 |
| 20260506120518 | 22 | 138 | 1.6 | 6.4 | 0.00 | 0.00 | 0.00 | 99 | 1011.3 |
| 20260506115527 | 22 | 147 | 3.2 | 6.4 | 0.00 | 0.00 | 0.00 | 99 | 1011.3 |
| 20260506115513 | 22 | 166 | 3.2 | 6.4 | 0.00 | 0.00 | 0.00 | 99 | 1009.4 |
| 20260506114516 | 22 | 176 | 4.8 | 9.7 | 0.00 | 0.00 | 0.00 | 99 | 1011.4 |
| 20260506113518 | 22 | 148 | 3.2 | 8.0 | 0.00 | 0.00 | 0.00 | 99 | 1011.5 |
| 20260506112521 | 22 | 146 | 3.2 | 6.4 | 0.00 | 0.00 | 0.00 | 99 | 1011.6 |
| 20260506112513 | 22 | 157 | 3.2 | 6.4 | 0.00 | 0.00 | 0.00 | 99 | 1009.8 |
| 20260506111522 | 22 | 168 | 3.2 | 6.4 | 0.00 | 0.00 | 0.00 | 99 | 1011.7 |
| 20260506110525 | 22 | 158 | 0.0 | 4.8 | 0.00 | 0.00 | 0.00 | 99 | 1011.7 |
| 20260506105527 | 22 | 145 | 3.2 | 4.8 | 0.00 | 0.00 | 0.00 | 99 | 1011.7 |
| 20260506105513 | 22 | 179 | 1.6 | 8.0 | 0.00 | 0.00 | 0.00 | 99 | 1009.7 |
| 20260506104529 | 22 | 192 | 3.2 | 8.0 | 0.00 | 0.00 | 0.00 | 99 | 1011.7 |
| 20260506103532 | 22 | 192 | 4.8 | 8.0 | 0.00 | 0.00 | 0.00 | 99 | 1011.5 |
| 20260506102517 | 22 | 94 | 6.4 | 14.5 | 0.00 | 0.00 | 0.00 | 99 | 1011.4 |
| 20260506102513 | 22 | 217 | 4.8 | 9.7 | 0.00 | 0.00 | 0.00 | 99 | 1009.6 |
| 20260506101518 | 22 | 165 | 4.8 | 11.3 | 0.00 | 0.00 | 0.00 | 99 | 1011.5 |
| 20260506100520 | 22 | 193 | 4.8 | 9.7 | 0.00 | 0.00 | 0.00 | 99 | 1011.4 |
| 20260506095522 | 22 | 138 | 6.4 | 9.7 | 0.00 | 0.00 | 0.00 | 99 | 1011.3 |
| 20260506095513 | 22 | 181 | 4.8 | 9.7 | 0.00 | 0.00 | 0.00 | 99 | 1009.4 |
| 20260506094524 | 22 | 175 | 4.8 | 9.7 | 0.00 | 0.00 | 0.00 | 99 | 1011.4 |
| 20260506093521 | 22 | 146 | 4.8 | 9.7 | 0.00 | 0.00 | 0.00 | 99 | 1011.3 |
| 20260506092522 | 22 | 162 | 6.4 | 12.9 | 0.00 | 0.00 | 0.00 | 99 | 1011.4 |
| 20260506092513 | 22 | 183 | 3.2 | 8.0 | 0.00 | 0.00 | 0.00 | 99 | 1009.4 |
| 20260506091525 | 22 | 172 | 6.4 | 12.9 | 0.00 | 0.00 | 0.00 | 99 | 1011.4 |
| 20260506090521 | 22 | 135 | 9.7 | 14.5 | 0.00 | 0.00 | 0.00 | 99 | 1011.2 |
| 20260506085517 | 22 | 145 | 4.8 | 8.0 | 0.00 | 0.00 | 0.00 | 99 | 1011.0 |
| 20260506085513 | 22 | 140 | 4.8 | 8.0 | 0.00 | 0.00 | 0.00 | 99 | 1008.9 |
| 20260506084531 | 22 | 178 | 8.0 | 12.9 | 0.00 | 0.00 | 0.00 | 99 | 1011.0 |
| 20260506083536 | 22 | 150 | 8.0 | 14.5 | 0.00 | 0.00 | 0.00 | 98 | 1010.9 |
| 20260506082518 | 22 | 199 | 6.4 | 12.9 | 0.00 | 0.00 | 0.00 | 97 | 1010.8 |
| 20260506082513 | 22 | 146 | 6.4 | 11.3 | 0.00 | 0.00 | 0.00 | 97 | 1008.7 |
| 20260506081520 | 23 | 119 | 8.0 | 12.9 | 0.00 | 0.00 | 0.00 | 96 | 1010.8 |
| 20260506080522 | 23 | 148 | 4.8 | 11.3 | 0.00 | 0.00 | 0.00 | 96 | 1010.9 |
| 20260506073528 | 23 | 159 | 9.7 | 14.5 | 0.00 | 0.00 | 0.00 | 95 | 1011.1 |
| 20260506072532 | 23 | 172 | 8.0 | 14.5 | 0.00 | 0.00 | 0.00 | 95 | 1011.2 |
| 20260506072513 | 23 | 189 | 8.0 | 11.3 | 0.00 | 0.00 | 0.00 | 95 | 1009.0 |
| 20260506071534 | 23 | 174 | 9.7 | 20.9 | 0.00 | 0.00 | 0.00 | 95 | 1011.2 |
| 20260506070537 | 23 | 190 | 8.0 | 16.1 | 0.00 | 0.00 | 0.00 | 95 | 1011.3 |
| 20260506062513 | 23 | 144 | 3.2 | 8.0 | 0.00 | 0.00 | 0.00 | 95 | 1009.3 |
| 20260506061535 | 23 | 172 | 3.2 | 12.9 | 0.00 | 0.00 | 0.00 | 95 | 1011.5 |
| 20260506060524 | 23 | 152 | 6.4 | 12.9 | 0.00 | 0.00 | 0.00 | 95 | 1011.5 |
| 20260506050539 | 21 | 124 | 1.6 | 4.8 | 0.00 | 0.00 | 0.00 | 98 | 1011.4 |
| 20260506044543 | 21 | 0.0 | 0.0 | 0.00 | 0.00 | 0.00 | 96 | 1011.5 | |
| 20260506043525 | 21 | 0.0 | 0.0 | 0.00 | 0.00 | 0.00 | 96 | 1011.5 | |
| 20260506042527 | 21 | 0.0 | 0.0 | 0.00 | 0.00 | 0.00 | 96 | 1011.5 | |
| 20260506042513 | 21 | 0 | 0.0 | 0.0 | 0.00 | 0.00 | 0.00 | 95 | 1009.5 |
| 20260506041529 | 21 | 0.0 | 0.0 | 0.00 | 0.00 | 0.00 | 95 | 1011.4 | |
| 20260506040524 | 22 | 0.0 | 0.0 | 0.00 | 0.00 | 0.00 | 95 | 1011.2 | |
| 20260506035520 | 22 | 0.0 | 0.0 | 0.00 | 0.00 | 0.00 | 94 | 1011.2 | |
| 20260506035513 | 22 | 0 | 0.0 | 0.0 | 0.00 | 0.00 | 0.00 | 94 | 1009.2 |
| 20260506034517 | 22 | 0.0 | 0.0 | 0.00 | 0.00 | 0.00 | 94 | 1011.1 | |
| 20260506033519 | 22 | 0.0 | 0.0 | 0.00 | 0.00 | 0.00 | 93 | 1011.0 | |
| 20260506032520 | 22 | 0.0 | 0.0 | 0.00 | 0.00 | 0.00 | 92 | 1010.9 | |
| 20260506032513 | 22 | 0 | 0.0 | 0.0 | 0.00 | 0.00 | 0.00 | 91 | 1008.6 |
| 20260506031523 | 22 | 0.0 | 0.0 | 0.00 | 0.00 | 0.00 | 91 | 1010.7 | |
| 20260506030605 | 23 | 0.0 | 0.0 | 0.00 | 0.00 | 0.00 | 91 | 1010.8 | |
| 20260506025527 | 23 | 0.0 | 0.0 | 0.00 | 0.00 | 0.00 | 90 | 1010.6 | |
| 20260506025513 | 23 | 0 | 0.0 | 0.0 | 0.00 | 0.00 | 0.00 | 89 | 1008.3 |
| 20260506024529 | 23 | 0.0 | 0.0 | 0.00 | 0.00 | 0.00 | 89 | 1010.3 | |
| 20260506023533 | 23 | 0.0 | 0.0 | 0.00 | 0.00 | 0.00 | 88 | 1010.1 |